Regional Weather Roundup
Issued by NWS

Home | Current Version | Previous Version | Graphics & Text | Print | Product List | Glossary On
Versions: 1 2 3 4 5 6 7 8 9 10 11 12 13 14 15 16 17 18 19 20 21 22 23 24 25 26 27 28 29 30 31 32 33 34 35 36 37 38 39 40 41 42 43 44 45 46 47 48 49 50
000
ASUS43 KOAX 190802
RWRNE

WEATHER ROUNDUP FOR NEBRASKA
NATIONAL WEATHER SERVICE OMAHA NE
300 AM CDT TUE SEP 19 2017

NOTES: SATELLITE DATA IS BEING USED TO AUGMENT CLOUD COVER ABOVE
       12000 FEET.
       "FAIR" INDICATES FEW OR NO CLOUDS BELOW 12,000 FEET WITH NO
       SIGNIFICANT WEATHER AND/OR OBSTRUCTIONS TO VISIBILITY.


NEZ001>004-019>022-054>056-190900-
NEBRASKA PANHANDLE

CITY           SKY/WX    TMP DP  RH WIND       PRES   REMARKS
SCOTTSBLUFF    CLEAR     61  47  59 E7        29.74S
ALLIANCE       CLEAR     58  50  75 SE15      29.74F
CHADRON        CLEAR     66  46  48 S24G32    29.66F
GORDON         FAIR      64  53  68 S9G16     29.73F
KIMBALL        CLOUDY    56  45  65 S10       29.79F
SIDNEY         CLOUDY    62  46  55 S13       29.78F
$$

NEZ057>060-069>072-079>082-190900-
SOUTHWEST NEBRASKA

CITY           SKY/WX    TMP DP  RH WIND       PRES   REMARKS
NORTH PLATTE   CLEAR     58  57  97 E9        29.78F
IMPERIAL       CLEAR     59  54  83 SE10      29.78F
LEXINGTON      CLEAR     62  60  93 SE7       29.80F FOG
MCCOOK         CLEAR     60  58  92 SE6       29.78F
OGALLALA       CLOUDY    65  57  75 SE13G18   29.76F
$$

NEZ005>010-023>029-035>040-094-190900-
NORTH CENTRAL NEBRASKA

CITY           SKY/WX    TMP DP  RH WIND       PRES   REMARKS
VALENTINE      PTCLDY    65  59  81 S10       29.74F
AINSWORTH      CLEAR     61  60  95 S12       29.76F
BROKEN BOW     CLEAR     59  58  96 SE3       29.79F
O`NEILL        CLEAR     61  61 100 S7        29.80F FOG
ORD            FOG       57  55  93 CALM      29.79F VSB 1/4
THEDFORD       CLOUDY    65  60  86 S17       29.78F
$$

NEZ041-046>049-061>064-073>077-083>087-190900-
SOUTH CENTRAL NEBRASKA

CITY           SKY/WX    TMP DP  RH WIND       PRES   REMARKS
GRAND ISLAND   CLEAR     65  64  97 S12       29.81F
AURORA         CLEAR     61  61 100 SE6       29.82F FOG
HASTINGS       CLEAR     65  62  90 S9        29.82F
HEBRON         CLEAR     69  64  85 S8        29.83S
HOLDREGE       CLEAR     63  60  91 S9        29.80F
KEARNEY        CLEAR     63  61  93 SE7       29.81F
YORK           CLEAR     64  64 100 SE3       29.83F
$$

NEZ011>018-030>034-042>045-190900-
NORTHEAST NEBRASKA

CITY           SKY/WX    TMP DP  RH WIND       PRES   REMARKS
NORFOLK        CLEAR     61  61 100 E6        29.81F FOG
ALBION         FOG       62  61  99 CALM      29.81F VSB 1
BLAIR          CLOUDY    67  66  97 SE5       29.86F FOG
COLUMBUS       CLEAR     62  61  96 E6        29.83F FOG
FREMONT        CLEAR     66  65  99 SE6       29.85F FOG
TEKAMAH        CLOUDY    66  64  93 SE9       29.85F FOG
WAYNE          CLOUDY    66  64  91 S14       29.83F FOG
$$

NEZ050>053-065>068-078-088>093-190900-
SOUTHEAST NEBRASKA

CITY           SKY/WX    TMP DP  RH WIND       PRES   REMARKS
LINCOLN        PTCLDY    67  65  93 SE8       29.85F
OMAHA EPPLEY   CLOUDY    67  64  90 SE10      29.86F
BEATRICE       CLEAR     68  66  94 SE6       29.85S
FALLS CITY     PTCLDY    66  65  96 SE6       29.87F FOG
NEBRASKA CITY  CLOUDY    67  67 100 SE9       29.87F FOG
PLATTSMOUTH    CLOUDY    66  66 100 SE10      29.87F FOG
$$

NEZ044-045-051>053-067-190900-
OMAHA AREA

CITY           SKY/WX    TMP DP  RH WIND       PRES   REMARKS
OMAHA EPPLEY   CLOUDY    67  64  90 SE10      29.86F
BLAIR          CLOUDY    67  66  97 SE5       29.86F FOG
FREMONT        CLEAR     66  65  99 SE6       29.85F FOG
MILLARD        CLOUDY    68  67  95 SE8       29.86S FOG
OFFUTT AFB     CLOUDY    66  65  95 SE10      29.86F
PLATTSMOUTH    CLOUDY    66  66 100 SE10      29.87F FOG
WAHOO          PTSUNNY   64  64  99 SE6       29.85F FOG
$$



USA.gov is the U.S. government's official web portal to all federal, state and local government web resources and services.